Regional Weather Roundup
Issued by NWS

Home | Current Version | Previous Version | Text Only | Print | Product List | Glossary On
Versions: 1 2 3 4 5 6 7 8 9 10 11 12 13 14 15 16 17 18 19 20 21 22 23 24 25 26 27 28 29 30 31 32 33 34 35 36 37 38 39 40 41 42 43 44 45 46 47 48 49 50
000
ASUS43 KLSX 211657
RWRMO

WEATHER SUMMARY FOR MISSOURI
NATIONAL WEATHER SERVICE SPRINGFIELD MO
1100 AM CST SAT JAN 21 2017

NOTE: "FAIR" INDICATES FEW OR NO CLOUDS BELOW 12,000 FEET WITH NO
       SIGNIFICANT WEATHER AND/OR OBSTRUCTIONS TO VISIBILITY.
       CURRENT SKY AND/OR WEATHER CONDITIONS ARE NOT AVAILABLE FOR
       CHILLICOTHE AND FARMINGTON.

MOZ001>031-035>038-043-044-053-054-211800-
...NORTHERN AND WESTERN MISSOURI...

CITY           SKY/WX    TMP DP  RH WIND       PRES   REMARKS
KANSAS CTY INT CLOUDY    42  39  89 SW13      29.55R FOG
LEE`S SUMMIT   CLOUDY    42  41  96 SW12      29.56F
ST JOSEPH      CLOUDY    43  42  97 SW14      29.54R
CHILLICOTHE      N/A     42  42 100 SW9       29.54R

$$
MOZ066>068-077>081-088>096-101>105-211800-
...SOUTHWEST MISSOURI...

CITY           SKY/WX    TMP DP  RH WIND       PRES   REMARKS
SPRINGFIELD    MOSUNNY   60  37  42 SW12      29.59S
JOPLIN         CLOUDY    57  36  45 SW8       29.58F
BRANSON        SUNNY     63  41  45 SE6       29.60S

$$
MOZ032>034-039>042-045>050-055>058-069>072-211800-
...CENTRAL MISSOURI...

CITY           SKY/WX    TMP DP  RH WIND       PRES   REMARKS
COLUMBIA       NOT AVBL
JEFFERSON CITY SUNNY     57  40  52 W8        29.56S
ROLLA          LGT RAIN  60  40  47 SW17      29.56S
SEDALIA        SUNNY     52  42  69 SW10      29.57S
WARRENSBURG    CLOUDY    43  39  87 SW10      29.57R

$$
MOZ051-052-059>065-211800-
...EAST CENTRAL MISSOURI...

CITY           SKY/WX    TMP DP  RH WIND       PRES   REMARKS
ST LOUIS INTL  NOT AVBL

$$
MOZ072>076-082>087-097>100-106>115-211800-
...SOUTH CENTRAL AND SOUTHEAST MISSOURI...

CITY           SKY/WX    TMP DP  RH WIND       PRES   REMARKS
CAPE GIRARDEAU SUNNY     63  55  75 SW14      29.64R
POPLAR BLUFF   SUNNY     65  57  75 S15       29.63S

$$



USA.gov is the U.S. government's official web portal to all federal, state and local government web resources and services.